FW1299 Weather Reports


Display with metric or nautical units.
time (UTC)temp
F
wind
direction
speed
MPH
gust
MPH
rain 1hr
in
rain 24hr
in
rain mn
in
humidity
%
barometer
mb
20260831140222 69 278 0.0 0.0 0.00 0.08 0.01 100 1020.5
20260831135222 69 278 0.0 0.0 0.00 0.08 0.01 100 1020.6
20260831134219 70 278 0.0 0.0 0.00 0.08 0.01 100 1020.4
20260831133220 70 278 0.0 0.0 0.00 0.08 0.01 100 1020.5
20260831132220 69 278 0.0 0.0 0.00 0.08 0.01 100 1020.5
20260831131219 69 278 0.0 0.0 0.00 0.08 0.01 100 1020.5
20260831130218 69 278 0.0 0.0 0.00 0.08 0.01 100 1020.5
20260831125218 69 278 0.0 0.0 0.00 0.08 0.01 100 1020.4
20260831124219 69 278 0.0 0.0 0.00 0.08 0.01 100 1020.3
20260831122218 67 278 0.0 0.0 0.00 0.08 0.01 100 1020.4
20260831121219 68 278 0.0 0.0 0.00 0.08 0.01 100 1020.4
20260831115213 67 278 0.0 0.0 0.00 0.08 0.01 100 1020.2
20260831114211 67 278 0.0 0.0 0.00 0.08 0.01 100 1020.3
20260831113207 66 278 0.0 0.0 0.00 0.08 0.01 100 1019.9
20260831112206 66 278 0.0 0.0 0.00 0.08 0.01 100 1019.9
20260831105203 65 278 0.0 0.0 0.00 0.08 0.01 100 1019.9
20260831104205 65 278 0.0 0.0 0.00 0.08 0.01 100 1019.7
20260831103203 65 278 0.0 0.0 0.00 0.08 0.01 100 1019.8
20260831102203 65 278 0.0 0.0 0.00 0.08 0.01 100 1019.7
20260831101202 65 278 0.0 0.0 0.00 0.08 0.01 100 1019.5
20260831100203 65 278 0.0 0.0 0.01 0.08 0.01 100 1019.3
20260831094157 66 278 0.0 0.0 0.01 0.08 0.01 100 1019.2
20260831093158 66 278 0.0 0.0 0.01 0.08 0.01 100 1018.9
20260831092158 66 278 0.0 0.0 0.01 0.08 0.01 100 1019.1
20260831091158 66 278 0.0 0.0 0.01 0.08 0.01 100 1019.1
20260831085157 67 278 0.0 0.0 0.00 0.07 0.00 100 1019.1
20260831084156 67 278 0.0 0.0 0.00 0.07 0.00 100 1019.2
20260831083157 67 278 0.0 0.0 0.00 0.07 0.00 100 1019.2
20260831082157 67 278 0.0 0.0 0.00 0.07 0.00 100 1019.4
20260831081151 67 278 0.0 0.0 0.00 0.07 0.00 100 1019.3
20260831080150 67 278 0.0 0.0 0.00 0.07 0.00 100 1019.2
20260831075152 68 278 0.0 0.0 0.00 0.07 0.00 100 1019.1
20260831074151 68 278 0.0 0.0 0.00 0.07 0.00 100 1019.2
20260831073151 68 278 0.0 0.0 0.00 0.07 0.00 100 1019.1
20260831072151 69 278 0.0 0.0 0.00 0.07 0.00 100 1019.2
20260831070151 68 278 0.0 0.0 0.00 0.07 0.00 100 1019.1
20260831065153 68 278 0.0 0.0 0.00 0.07 0.00 100 1019.1
20260831064148 68 278 0.0 0.0 0.00 0.07 0.00 100 1019.1
20260831063149 68 278 0.0 0.0 0.00 0.07 0.00 100 1019.2
20260831062149 68 278 0.0 0.0 0.00 0.07 0.00 100 1019.1
20260831061147 68 278 0.0 0.0 0.00 0.07 0.00 100 1019.2
20260831060147 68 278 0.0 0.0 0.00 0.07 0.00 100 1019.5
20260831055145 68 278 0.0 0.0 0.00 0.07 0.00 100 1019.5
20260831054143 69 278 0.0 0.0 0.00 0.07 0.00 100 1019.3
20260831053141 69 278 0.0 0.0 0.00 0.07 0.00 100 1019.2
20260831052136 69 278 0.0 0.0 0.00 0.07 0.00 100 1019.3
20260831051135 69 278 0.0 0.0 0.00 0.07 0.00 100 1019.4
20260831045132 69 278 0.0 0.0 0.00 0.07 0.00 100 1019.5
20260831044132 70 278 0.0 0.0 0.00 0.07 0.00 100 1019.4
20260831043133 70 278 0.0 0.0 0.00 0.07 0.00 100 1019.4
20260831042132 70 205 0.0 0.0 0.00 0.07 0.00 100 1019.4
20260831041131 70 269 0.0 0.0 0.00 0.07 0.00 100 1019.4
20260831040130 70 269 0.0 0.0 0.00 0.07 0.00 100 1019.5
20260831035130 71 233 0.0 0.0 0.00 0.07 0.07 100 1019.3
20260831033126 71 233 0.0 0.0 0.02 0.07 0.07 100 1019.2
20260831032126 71 233 0.0 0.0 0.02 0.07 0.07 100 1019.2
20260831031126 72 233 0.0 0.0 0.02 0.07 0.07 100 1019.4
20260831030125 72 233 0.0 0.0 0.03 0.07 0.07 100 1019.1
20260831025124 72 254 0.0 0.0 0.03 0.07 0.07 100 1019.2
20260831024127 73 291 1.0 7.0 0.03 0.07 0.07 100 1019.0
20260831023127 73 239 0.0 0.0 0.01 0.05 0.05 100 1019.1
20260831021126 73 239 0.0 0.0 0.01 0.05 0.05 100 1019.1
20260831020121 73 239 0.0 0.0 0.00 0.04 0.04 100 1019.2
20260831015122 73 239 0.0 0.0 0.00 0.04 0.04 100 1019.2
20260831014121 73 239 0.0 0.0 0.00 0.04 0.04 100 1019.3
20260831013121 73 239 0.0 0.0 0.00 0.04 0.04 100 1019.3
20260831012121 73 239 0.0 0.0 0.00 0.04 0.04 100 1019.2
20260831011121 73 239 0.0 0.0 0.00 0.04 0.04 100 1019.1
20260831010119 73 239 0.0 0.0 0.00 0.04 0.04 100 1019.0
20260831005120 73 239 0.0 0.0 0.00 0.04 0.04 100 1018.8
20260831004121 73 239 0.0 0.0 0.00 0.04 0.04 100 1018.8
20260831003118 74 239 0.0 0.0 0.00 0.04 0.04 100 1018.4
20260831002112 74 239 0.0 0.0 0.00 0.04 0.04 100 1018.3
20260831000109 74 239 0.0 0.0 0.00 0.04 0.04 100 1018.4
20260830235106 74 239 0.0 0.0 0.00 0.04 0.04 100 1018.4
20260830234106 74 239 0.0 0.0 0.00 0.04 0.04 100 1018.3
20260830233107 74 239 0.0 0.0 0.00 0.04 0.04 100 1018.2
20260830232104 74 239 0.0 0.0 0.00 0.04 0.04 100 1018.4
20260830231105 75 239 0.0 0.0 0.00 0.04 0.04 100 1018.2
20260830225100 75 239 0.0 0.0 0.00 0.04 0.04 100 1018.3
20260830224101 76 239 0.0 0.0 0.00 0.04 0.04 100 1018.3
20260830221056 75 239 0.0 0.0 0.00 0.04 0.04 100 1018.2
20260830220056 76 239 0.0 0.0 0.04 0.04 0.04 100 1018.4
20260830215057 76 239 0.0 0.0 0.04 0.04 0.04 99 1018.4
20260830214056 76 239 0.0 1.0 0.04 0.04 0.04 99 1018.3
20260830213056 76 255 0.0 1.0 0.04 0.04 0.04 97 1018.2
20260830212056 77 212 0.0 1.0 0.04 0.04 0.04 96 1018.1
20260830211056 78 264 0.0 2.0 0.04 0.04 0.04 92 1018.2
20260830210057 81 202 0.0 1.0 0.00 0.00 0.00 87 1018.3
20260830205057 81 226 0.0 1.0 0.00 0.00 0.00 83 1018.2
20260830204056 82 137 0.0 2.0 0.00 0.00 0.00 83 1018.3
20260830203056 82 256 0.0 0.0 0.00 0.00 0.00 83 1018.4
20260830201054 82 253 1.0 5.0 0.00 0.00 0.00 80 1018.4
20260830200054 82 278 1.0 7.0 0.00 0.00 0.00 81 1018.6
20260830195107 83 260 0.0 3.0 0.00 0.00 0.00 78 1018.8
20260830194055 82 185 1.0 5.0 0.00 0.00 0.00 82 1018.8
20260830193054 81 274 1.0 6.0 0.00 0.00 0.00 82 1019.0
20260830192054 81 266 1.0 5.0 0.00 0.00 0.00 81 1019.1
20260830191048 82 217 1.0 5.0 0.00 0.00 0.00 81 1019.2
20260830185048 80 246 0.0 3.0 0.00 0.00 0.00 85 1019.7
20260830184049 79 212 1.0 3.0 0.00 0.00 0.00 86 1019.8
20260830182048 78 229 1.0 4.0 0.00 0.00 0.00 85 1019.7
20260830181049 79 283 1.0 6.0 0.00 0.00 0.00 84 1020.0
20260830180049 78 250 1.0 5.0 0.00 0.00 0.00 85 1020.0
20260830174043 79 278 0.0 6.0 0.00 0.00 0.00 84 1020.3
20260830173042 79 138 1.0 5.0 0.00 0.00 0.00 83 1020.5
20260830172043 79 285 2.0 7.0 0.00 0.00 0.00 82 1020.6
20260830171041 79 231 1.0 5.0 0.00 0.00 0.00 82 1020.5
20260830170041 78 254 1.0 4.0 0.00 0.00 0.00 84 1020.8
20260830165042 78 255 1.0 4.0 0.00 0.00 0.00 83 1020.8
20260830164042 78 271 1.0 4.0 0.00 0.00 0.00 82 1020.8
20260830163041 79 234 2.0 6.0 0.00 0.00 0.00 80 1020.9
20260830160041 76 210 2.0 6.0 0.00 0.00 0.00 84 1021.3
20260830155045 75 236 0.0 4.0 0.00 0.00 0.00 88 1021.4
20260830153041 73 242 0.0 4.0 0.00 0.00 0.00 89 1021.7
20260830151040 72 292 0.0 3.0 0.00 0.00 0.00 88 1021.8
20260830150038 71 188 0.0 2.0 0.00 0.00 0.00 91 1021.8
20260830145034 71 259 0.0 3.0 0.00 0.00 0.00 90 1021.9
20260830144031 71 146 1.0 5.0 0.00 0.00 0.00 89 1021.9
20260830143035 71 205 1.0 3.0 0.00 0.00 0.00 90 1021.9
20260830142036 70 280 1.0 4.0 0.00 0.00 0.00 91 1022.1
20260830141031 69 289 1.0 5.0 0.00 0.00 0.00 93 1022.3